Location: Unspecified
(43.3830°N, 0.0000°E)
Time: 21:55:16
(UTC+00:00)

Vanguard 2 - Pass Details

Date: 26 June 2019
Orbit: 553 x 2938 km, 32.9° (Epoch: 14 July)

Event Time Altitude Azimuth Distance (km) Brightness Sun altitude
Rises 06:56:17 0° 223° (SW) 2,779 10.0 25.3°
Reaches altitude 10° 06:58:51 10° 204° (SSW) 2,004 9.5 25.7°
Maximum altitude 07:02:05 19° 157° (SSE) 1,687 9.6 26.3°
Drops below altitude 10° 07:06:08 10° 113° (ESE) 2,595 11.4 27.0°
Sets 07:10:03 0° 97° (E) 3,954 12.3 27.7°
